Regional Weather Roundup
Issued by NWS

Home | Current Version | Previous Version | Text Only | Print | Product List | Glossary On
Versions: 1 2 3 4 5 6 7 8 9 10 11 12 13 14 15 16 17 18 19 20 21 22 23 24 25 26 27 28 29 30 31 32 33 34 35 36 37 38 39 40 41 42 43 44 45 46 47 48 49 50
000
ASUS43 KLMK 260710
RWRKY
KENTUCKY REGIONAL WEATHER ROUNDUP
NATIONAL WEATHER SERVICE LOUISVILLE KY
300 AM EDT MON SEP 26 2016

NOTE "FAIR" INDICATES FEW OR NO CLOUDS BELOW 12,000 FEET
WITH NO SIGNIFICANT WEATHER AND/OR OBSTRUCTIONS TO VISIBILITY.

KYZ001>023-026-027-061>063-070>075-260800-
WESTERN AND SOUTH CENTRAL KENTUCKY

CITY           SKY/WX    TMP DP  RH WIND       PRES   REMARKS
PADUCAH        PTCLDY    71  67  87 CALM      29.98R
HENDERSON      CLEAR     72  64  78 SW5       29.96S
OWENSBORO      NOT AVBL
HOPKINSVILLE   CLEAR     71  67  88 CALM      29.99F
BOWLING GREEN  CLEAR     68  66  93 CALM      30.01F
GLASGOW        CLEAR    N/A N/A N/A CALM      30.01F HAZE
$$

KYZ024-025-028>034-038-045-046-053-260800-
NORTH CENTRAL KENTUCKY

CITY           SKY/WX    TMP DP  RH WIND       PRES   REMARKS
LOUISVILLE/SDF CLEAR     72  67  84 SE6       29.98S
LOUISVILLE/LOU CLEAR     72  66  81 SE3       29.99F
FORT KNOX      CLEAR     67  65  95 SW1       29.98F
$$

KYZ035>037-039>044-047>052-055>060-089>105-260800-
NORTHEAST KENTUCKY

CITY           SKY/WX    TMP DP  RH WIND       PRES   REMARKS
LEXINGTON      CLEAR     69  64  84 S7        30.02F
COVINGTON      CLEAR     69  64  84 S6        29.98F
FRANKFORT      CLEAR     68  64  87 CALM      29.99F
$$

KYZ054-064>069-076>088-106>120-260800-
SOUTHEAST KENTUCKY

CITY           SKY/WX    TMP DP  RH WIND       PRES   REMARKS
JACKSON        CLEAR     71  64  78 S3        30.05S
LONDON         CLEAR     66  63  90 CALM      30.04F
SOMERSET       CLEAR     64  64 100 CALM      30.05S
MIDDLESBORO    CLEAR     65  65 100 CALM      30.07F
MONTICELLO     SUNNY     64  63  96 W9        30.05F
$$





USA.gov is the U.S. government's official web portal to all federal, state and local government web resources and services.